User: anonymous   Login
Location: Vista Encantada
(35.1109°N, 106.5681°W)
Time: 11:26:18
(UTC+00:00)
Language:

SL-16 R/B - Orbit

View from above orbital plane
View from above orbital plane
View from above satellite
View from above satellite

Ground track
Ground track

The orbit data is extracted from the following two-line orbital elements,

1 31793U 07029B   21023.09674771 -.00000072  00000-0 -12721-4 0  9998
2 31793  70.9771 144.9694 0002882 277.7145 255.0001 14.14444898700788
Epoch (UTC): 23 January 2021 02:19:19
Eccentricity: 0.0002882
inclination: 70.9771°
perigee height: 842 km
apogee height: 846 km
right ascension of ascending node: 144.9694°
argument of perigee: 277.7145°
revolutions per day: 14.14444898
mean anomaly at epoch: 255.0001°
orbit number at epoch: 70078

The dashed part of the orbit path shows where the satellite is in the earth's shadow,  

DLR